Location: Namasale
(1.5000°N, 32.6167°E)
Time: 13:33:31
(UTC+00:00)

X-37B - Visible Passes

Search period start: 25 February 2021 00:00
Search period end: 07 March 2021 00:00
Orbit: 383 x 391 km, 45.0° (Epoch: 10 February)

Date Brightness Start Highest point End Pass type
(mag) Time Alt. Az. Time Alt. Az. Time Alt. Az.
03 Mar 2.1 17:21:33 10° SSW 17:23:24 27° S 17:23:24 27° S visible
04 Mar 2.6 16:24:21 10° S 16:26:16 15° SE 16:28:11 10° E visible
04 Mar 4.0 18:00:19 10° W 18:00:53 13° W 18:00:53 13° W visible
05 Mar 1.1 17:01:16 10° SW 17:04:25 58° NW 17:06:06 24° NNE visible
